Вернуться в каталог

OPS 0441

АктивенВоенныеMEO
NORAD 14675·PAYLOAD·🇺🇸 United States

Запущен Jan 31, 1984 с Cape Canaveral Space Force Station

Loading…

Ближайшие Пролёты (ближайшие 24 часа)

TLE

СвежийSource: Space-Track

Эпоха: Sep 14, 2026, 11:47 UTC

1 14675U 84009A   26257.49150373 -.00000235  00000-0  00000-0 0  9999
2 14675   6.1240   3.3692 0882915  27.3108  41.7966  1.00368644  8648

Отслеживайте OPS 0441 в реальном времени с AllMySat

Download on the App Store